Location: Austin, TX
(30.3000°N, 97.7500°W)
Time: 09:11:00
(UTC-05:00)

Daily predictions for brighter satellites

Satellite Brightness Start Highest point End
(mag) Time Altitude Azimuth Time Altitude Azimuth Time Altitude Azimuth
Atlas Centaur 2 2.7 20:43:03 10° W 20:49:18 88° S 20:57:09 10° E
Cosmos 1943 4.0 20:48:54 10° SSE 20:53:39 29° ESE 20:58:26 10° NE
Meteor 1-23 Rocket 4.3 20:48:05 10° S 20:53:43 86° E 20:59:28 10° N
Cosmos 2233 Rocket 4.3 20:47:58 10° N 20:54:09 72° W 21:00:15 10° S
H-2A R/B 3.9 20:54:21 10° ESE 20:56:57 16° ENE 20:59:36 10° NNE
Cosmos 2297 4.0 20:52:32 10° NNW 20:58:14 73° WSW 21:03:56 10° S
Meteor 2-4 Rocket 4.0 20:54:04 10° S 20:59:55 82° W 21:05:53 10° N
Cosmos 2098 Rocket 4.5 20:56:30 10° NNW 21:00:26 43° W 21:05:22 10° SSW
Cosmos 2228 3.5 20:57:15 10° N 21:01:26 42° E 21:05:35 10° SSE
Cosmos 1626 Rocket 3.9 20:58:46 10° SSE 21:02:58 45° E 21:07:10 10° NNE
Mugunghwa Rocket 4.5 21:01:16 10° SW 21:07:04 39° SSE 21:12:56 10° E
H-2A R/B 3.1 21:04:11 10° SSE 21:08:01 51° ENE 21:11:51 10° N
FengYun 1-2 T 4.5 21:02:50 10° S 21:08:19 74° WSW 21:13:48 10° NNW
Abrixas rocket 2.8 21:05:28 10° WNW 21:08:48 53° SW 21:12:04 10° SSE
deb Chang Zheng 4 4.2 21:05:19 10° NNE 21:09:21 36° E 21:13:20 10° SSE
Cosmos 2285 Rocket 4.1 21:05:21 10° NNW 21:11:42 86° WSW 21:18:05 10° SSE
Cosmos 1464 Rocket 4.0 21:05:43 10° N 21:11:50 69° E 21:18:01 10° SSE
Centaur D AC-28 2.0 21:07:09 10° W 21:11:57 50° SSW 21:15:06 13° ESE
Delta 168 3.2 21:11:59 10° WSW 21:14:49 33° S 21:17:16 15° ESE
Cosmos 1461 2.8 21:12:46 10° NNW 21:16:58 79° ENE 21:20:36 12° SSE
ATLAS 3B R/B 3.0 21:09:52 10° S 21:17:21 58° ESE 21:24:48 10° NE
SPOT 5 4.4 21:21:02 12° E 21:23:00 15° ENE 21:25:33 10° NNE
Cosmos 1302 Rocket 4.4 21:28:09 10° NNW 21:33:22 66° WSW 21:38:34 10° S
Cosmos 2034 Rocket 4.0 21:27:32 10° N 21:33:54 78° E 21:40:10 10° S
CZ-4 DEB 3.5 21:33:44 10° S 21:36:52 51° W 21:40:01 10° NNW
Cosmos 1666 3.3 21:35:37 10° NNW 21:39:27 57° W 21:43:14 10° S
ERS-1 Rocket 2.9 21:37:16 15° SSE 21:41:25 71° ENE 21:46:25 10° N
Cosmos 2369 Rocket 3.3 21:37:01 10° N 21:41:53 29° ENE 21:44:34 20° ESE
COSMOS 2455 4.0 21:36:57 10° SW 21:42:41 46° WNW 21:48:27 10° N
GRACE-1 3.8 21:46:24 10° N 21:49:16 74° E 21:50:09 39° SSE
GRACE-2 3.8 21:46:51 10° N 21:49:41 75° E 21:50:34 40° SSE
Cosmos 1900 4.3 21:45:03 10° SSW 21:50:10 83° ESE 21:55:20 10° NNE
SJ-11-01 4.2 21:47:29 19° SSE 21:50:49 82° ENE 21:55:29 10° N
Cosmos 1758 Rocket 4.3 21:57:13 31° ESE 21:57:48 32° E 22:01:40 10° NNE
Envisat 3.2 21:57:17 29° SE 21:59:42 54° ENE 22:04:39 10° N
CZ-2C R/B 2.1 22:01:10 26° WSW 22:01:33 28° W 22:03:35 10° NW
GEOS 3 Rocket 3.7 21:59:26 29° SE 22:02:05 64° NE 22:07:16 10° NNW
Cosmos 407 Rocket 3.4 21:57:16 10° S 22:02:31 75° ESE 22:07:44 10° NNE
USA 238 DEB 3.9 21:58:19 10° S 22:05:06 50° ESE 22:11:53 10° NE
USA 238 3.9 21:58:26 10° S 22:05:12 49° ESE 22:11:58 10° NE
Cosmos 1515 4.1 22:02:55 15° SSW 22:06:03 63° W 22:09:53 10° N
Cosmos 1825 Rocket 3.5 22:10:34 24° S 22:13:13 84° W 22:17:39 10° N
MetOp-A 4.4 22:12:57 37° ESE 22:14:38 50° ENE 22:19:47 10° N
Cosmos 1066 Rocket 4.3 22:15:55 14° SSW 22:20:50 79° W 22:26:39 10° N
COSMOS 2406 3.6 22:21:23 40° ESE 22:21:47 41° ESE 22:27:06 10° NE
Lacrosse 4 Rocket 3.2 22:18:28 10° SW 22:22:04 31° WNW 22:25:43 10° N
Cosmos 1954 Rocket 3.9 22:21:57 37° S 22:24:00 66° ESE 22:29:16 10° NNE
UNK 4.3 22:19:10 10° NNE 22:24:47 85° WNW 22:29:39 16° SSW
Cosmos 1943 Rocket 3.2 22:26:27 10° N 22:31:14 29° ENE 22:31:53 28° ENE
H-2A R/B 3.5 22:30:32 21° SW 22:32:38 32° W 22:36:32 10° NW
SeaSat 1 2.8 22:32:37 44° E 22:33:14 47° ENE 22:37:58 10° N
deb Centaur AC-2 4.4 22:28:27 10° W 22:33:19 70° SSW 22:34:15 57° SE
Cosmos 1992 Rocket 4.5 22:33:42 10° NNW 22:38:47 54° WSW 22:40:28 38° SSW
Atlas Centaur 2 2.8 22:31:58 10° W 22:39:09 85° S 22:42:50 37° ESE
Meteor 1-22 Rocket 4.2 22:37:25 10° N 22:43:10 86° E 22:44:34 55° SSE
Kosmos-1675 3.9 22:47:09 47° N 22:47:09 47° N 22:51:28 10° NNE
Cosmos 1953 4.1 22:51:03 10° NNE 22:52:53 23° NNE 22:52:53 23° NNE
OAO 1 Rocket 4.4 22:50:56 10° WSW 22:56:15 80° NNW 22:57:10 61° NE
CZ-4B R/B 4.3 22:51:24 10° N 22:56:23 49° WNW 22:59:09 25° SW
CZ-4 R/B 4.0 22:51:37 10° N 22:56:38 74° WNW 22:57:26 60° SW
Terra 3.3 22:57:56 25° NE 22:57:56 25° NE 23:00:52 10° NNE
Nadezhda 4 Rocket 4.2 22:58:24 52° E 22:58:24 52° E 23:04:29 10° NNE
Cosmos 1023 Rocket 4.4 22:58:38 81° SSW 22:58:54 88° WNW 23:04:11 10° NNE
USA 245 4.1 22:58:48 68° S 22:59:32 81° WSW 23:04:40 10° NNW
ATLAS 5 CENTAUR R/B 3.7 22:55:53 10° SW 23:21:28 - ESE 22:56:00 11° SW
ARGOS 3.0 22:59:31 76° E 22:59:42 77° ENE 23:05:08 10° N
Cosmos 1842 4.3 23:00:59 43° NNW 23:00:59 43° NNW 23:03:44 10° N
SPOT 5 3.9 23:00:17 32° WSW 23:00:47 33° W 23:04:42 10° NW
Milstar 3 Cent rocket 4.3 22:58:25 10° WSW 23:01:24 14° SW 23:01:24 14° SW
Mugunghwa Rocket 3.9 22:56:09 10° WSW 23:02:07 62° S 23:02:07 62° S
Cosmos 1850 Rocket 4.1 23:04:58 65° NE 23:04:58 65° NE 23:09:28 10° NNE
Cosmos-2242 4.0 23:01:53 10° N 23:04:55 42° NNE 23:04:55 42° NNE
Cosmos 1140 Rocket 3.5 23:06:28 71° WSW 23:06:48 74° WNW 23:12:03 10° NNE
H-2A R/B 2.8 23:14:20 40° NE 23:14:20 40° NE 23:18:06 10° N
Cosmos 1607 4.3 23:16:51 27° SW 23:20:16 61° WNW 23:26:26 10° NNE
NOSS 3-2 (A) 3.8 23:22:47 50° ENE 23:22:47 50° ENE 23:27:36 10° NE
SPOT 1/Viking Rocket 4.2 23:22:33 46° W 23:22:33 46° W 23:27:28 10° NNW
USA 234 3.8 23:24:28 42° ENE 23:25:40 46° NE 23:31:52 10° NNW
Cosmos 2369 Rocket 3.5 23:21:00 10° NW 23:25:45 29° WSW 23:26:23 28° WSW
Cosmos 614 Rocket 4.5 23:27:50 55° N 23:27:50 55° N 23:31:55 10° NNE
Meteor 2-5 Rocket 4.5 23:42:55 47° NNE 23:42:55 47° NNE 23:47:03 10° NNE
CZ-4C R/B 3.1 23:48:42 41° NNE 23:48:42 41° NNE 23:52:24 10° NNE
